Вернуться в каталог

STARLINK-31013

АктивенСвязьVLEO
NORAD 58526·PAYLOAD·🇺🇸 United States

Запущен Dec 7, 2023 с Cape Canaveral Space Force Station

Loading…

Ближайшие Пролёты (ближайшие 24 часа)

TLE

СвежийSource: CelesTrak SupGP

Эпоха: Sep 15, 2026, 01:46 UTC

1 58526C 23191U   26258.07409722  .00045055  00000+0  24983-2 0  2580
2 58526  42.9979 144.8288 0010926 188.7012 120.0488 15.12936833    13

Отслеживайте STARLINK-31013 в реальном времени с AllMySat

Download on the App Store